Location: *
(48.8489°N, 2.3218°E)
Time: 08:15:33
(UTC+00:00)

Cosmos 1536 Rocket - Pass Details

Date: 23 August 2019
Orbit: 604 x 633 km, 82.5° (Epoch: 18 September)

Event Time Altitude Azimuth Distance (km) Brightness Sun altitude
Rises 21:34:04 0° 352° (N) 2,920 8.0 -22.5°
Reaches altitude 10° 21:36:20 10° 355° (N) 2,004 7.0 -22.7°
Enters shadow 21:40:45 65° 78° (ENE) 682 3.5 -23.1°
